Date,TemperatureHighF,TemperatureAvgF,TemperatureLowF,DewpointHighF,DewpointAvgF,DewpointLowF,HumidityHigh,HumidityAvg,HumidityLow,PressureMaxIn,PressureMinIn,WindSpeedMaxMPH,WindSpeedAvgMPH,GustSpeedMaxMPH,PrecipitationSumIn
2013-1-1,53,50,49,48,46,42,92,86,72,30.26,29.96,11,2,19,0.69
2013-1-2,55,50,46,48,45,40,90,82,72,30.57,30.26,6,1,10,0.08
2013-1-3,55,48,43,43,41,38,88,77,58,30.72,30.57,3,0,6,0.00
2013-1-4,54,46,40,45,40,35,90,82,62,30.71,30.63,2,0,6,0.00
2013-1-5,47,44,42,45,43,40,96,94,89,30.65,30.55,2,0,5,0.00
2013-1-6,53,47,45,46,44,43,94,89,75,30.57,30.40,2,0,6,0.00
2013-1-7,48,46,45,44,43,42,91,88,85,30.40,30.33,2,0,4,0.00
2013-1-8,56,47,41,46,42,39,91,83,64,30.42,30.33,3,1,5,0.00
2013-1-9,52,46,39,45,40,36,91,78,60,30.33,30.17,3,1,5,0.01
2013-1-10,60,52,48,52,48,45,94,85,64,30.30,30.18,3,1,8,0.26
2013-1-11,57,49,43,47,43,40,92,81,63,30.31,30.08,4,1,5,0.02
2013-1-12,54,49,42,47,43,38,92,79,61,30.08,29.90,4,1,10,0.40
2013-1-13,46,43,42,42,40,38,93,89,84,30.12,29.87,5,1,9,0.54
2013-1-14,49,45,42,46,42,40,95,90,74,30.16,30.03,5,1,8,1.11
2013-1-15,51,48,47,48,46,41,94,90,74,30.04,29.93,6,2,15,1.93
2013-1-16,54,51,46,52,47,44,95,88,80,29.99,29.69,7,2,12,0.79
2013-1-17,45,43,40,44,38,30,95,83,56,30.07,29.83,1,0,4,0.25
2013-1-18,63,52,42,54,49,40,95,91,68,29.85,29.31,5,1,7,1.08
2013-1-19,60,54,46,52,48,43,95,80,57,29.31,28.85,13,3,14,0.48
2013-1-20,50,47,44,44,41,38,91,80,68,29.57,29.22,6,2,10,0.30
2013-1-21,51,46,41,43,38,33,86,76,65,29.83,29.49,9,3,18,0.24
2013-1-22,50,46,39,40,34,29,87,63,45,29.78,29.57,17,6,27,0.07
2013-1-23,49,44,41,42,38,35,90,81,63,29.91,29.67,7,3,14,0.64
2013-1-24,50,47,43,45,42,36,92,82,70,30.07,29.64,7,2,13,1.09
2013-1-25,51,45,38,45,38,35,92,77,62,30.08,29.86,3,1,5,0.12
2013-1-26,57,52,46,52,47,40,94,83,72,30.17,29.81,6,2,12,0.30
2013-1-27,60,54,46,50,42,35,91,65,43,30.10,29.81,7,2,11,0.39
2013-1-28,60,51,46,45,42,38,88,71,50,30.31,30.10,4,1,8,0.03
2013-1-29,63,56,50,46,40,36,65,55,48,30.28,30.19,8,4,11,0.00
2013-1-30,72,62,54,54,49,46,92,63,41,30.42,30.19,8,2,14,0.02
2013-1-31,65,59,54,55,51,49,92,77,62,30.41,30.29,4,1,7,0.01
2013-2-1,64,58,51,53,48,44,91,71,49,30.28,29.77,11,4,18,0.42
2013-2-2,52,48,45,48,41,33,89,76,56,30.28,29.83,7,4,11,0.25
2013-2-3,50,45,40,42,35,30,82,67,57,30.48,30.29,5,1,8,0.02
2013-2-4,52,51,47,51,48,42,95,92,78,30.46,30.36,3,1,7,0.55
2013-2-5,56,51,44,50,47,40,95,87,70,30.37,30.08,6,2,12,0.49
2013-2-6,48,45,43,43,40,38,90,83,71,30.10,29.94,8,3,13,0.83
2013-2-7,48,45,42,42,39,36,91,82,65,30.31,30.11,5,2,11,0.31
2013-2-8,47,45,42,44,41,36,93,86,72,30.23,29.98,5,2,8,0.91
2013-2-9,49,44,38,46,40,34,92,87,75,30.30,30.17,2,1,5,0.39
2013-2-10,55,48,43,44,40,37,90,75,56,30.17,29.62,13,3,23,0.36
2013-2-11,47,43,40,41,36,34,90,78,63,29.75,29.67,10,5,17,0.59
2013-2-12,49,46,40,44,42,38,93,86,77,30.13,29.73,6,2,11,0.49
2013-2-13,53,48,45,51,46,42,96,92,85,30.24,30.12,3,0,6,0.59
2013-2-14,56,53,52,51,49,45,95,86,73,30.27,30.21,3,1,4,0.07
2013-2-15,57,51,44,49,45,40,92,82,59,30.25,30.19,2,0,5,0.03
2013-2-16,55,47,39,46,41,36,91,80,65,30.19,30.00,3,1,4,0.00
2013-2-17,61,53,44,44,41,39,83,65,52,30.00,29.81,9,3,13,0.00
2013-2-18,58,54,48,48,45,42,88,73,58,29.88,29.81,7,2,12,0.02
2013-2-19,63,56,48,46,44,43,88,64,49,29.88,29.81,10,4,14,0.00
2013-2-20,62,55,48,49,44,42,81,68,55,29.92,29.86,3,1,5,0.00
2013-2-21,56,51,48,51,46,43,91,83,73,29.86,29.70,3,0,8,0.02
2013-2-22,48,42,38,44,33,28,89,71,61,29.75,29.65,2,0,4,0.00
2013-2-23,40,36,30,34,27,22,91,70,58,30.12,29.71,3,1,8,0.04
2013-2-24,40,37,35,36,33,30,93,86,72,30.22,30.09,3,0,5,0.13
2013-2-25,41,37,33,38,35,31,94,91,87,30.23,30.18,3,1,10,0.24
2013-2-26,41,38,35,38,35,33,94,90,83,30.22,30.15,3,1,6,0.06
2013-2-27,49,41,34,38,35,32,94,79,62,30.24,30.17,2,1,5,0.01
2013-2-28,50,42,37,43,37,34,89,81,66,30.18,30.05,3,0,5,0.00
2013-3-1,53,45,39,44,40,36,91,82,61,30.15,30.04,2,0,5,0.00
2013-3-2,49,45,39,43,38,35,88,78,67,30.18,30.08,2,0,4,0.00
2013-3-3,66,51,35,43,36,33,92,62,31,30.08,29.81,7,2,11,0.00
2013-3-4,64,59,53,43,38,30,55,46,33,29.81,29.50,15,8,24,0.00
2013-3-5,64,61,59,49,46,42,67,59,52,29.50,29.34,10,6,18,0.00
2013-3-6,71,63,57,50,48,45,69,58,45,29.44,29.30,11,3,18,0.00
2013-3-7,70,62,54,53,48,44,82,61,45,29.52,29.25,14,7,25,0.05
2013-3-8,68,60,53,49,44,42,82,58,40,29.65,29.51,10,3,12,0.00
2013-3-9,66,59,54,43,40,37,62,49,36,29.64,29.57,10,4,15,0.00
2013-3-10,63,59,56,41,39,37,55,48,41,29.57,29.49,12,6,17,0.00
2013-3-11,63,55,50,49,41,36,90,62,42,29.58,29.46,11,4,18,0.25
2013-3-12,51,46,41,46,42,37,91,86,69,29.67,29.54,3,1,10,0.47
2013-3-13,43,40,36,38,34,27,92,79,55,30.01,29.63,6,2,19,0.34
2013-3-14,46,42,36,41,37,33,91,83,71,30.09,29.97,5,1,10,0.35
2013-3-15,54,46,38,38,36,32,86,68,53,30.14,29.93,3,1,8,0.01
2013-3-16,56,52,46,44,35,28,78,53,43,29.93,29.65,12,6,17,0.00
2013-3-17,54,49,44,46,43,39,91,80,55,29.65,29.52,8,2,10,0.10
2013-3-18,54,47,42,44,40,36,88,76,57,29.75,29.50,7,2,12,0.15
2013-3-19,60,50,41,45,41,33,91,75,38,29.74,29.53,7,1,13,0.02
2013-3-20,58,50,46,45,42,39,90,74,54,30.03,29.64,5,1,9,0.09
2013-3-21,70,60,45,40,37,34,78,44,31,30.01,29.72,15,8,25,0.00
2013-3-22,67,61,54,51,42,36,87,52,35,29.72,29.55,14,4,20,0.03
2013-3-23,65,57,46,50,44,38,89,64,38,29.71,29.51,5,1,8,0.00
2013-3-24,64,56,48,50,45,41,82,67,46,29.74,29.51,3,1,7,0.00
2013-3-25,58,54,51,50,46,40,93,75,52,29.77,29.57,6,1,10,0.24
2013-3-26,56,52,50,51,49,48,93,89,81,29.69,29.59,2,0,4,0.06
2013-3-27,56,53,50,53,50,48,95,92,83,29.65,29.51,2,0,5,0.17
2013-3-28,51,49,48,49,47,45,94,92,90,29.82,29.64,1,0,2,0.13
2013-3-29,69,59,49,55,51,46,95,76,53,29.75,29.51,10,2,13,0.54
2013-3-30,60,55,52,52,50,46,94,83,70,29.91,29.68,4,1,9,0.27
2013-3-31,62,56,48,52,47,44,87,74,59,29.89,29.42,3,1,5,0.00
2013-4-1,61,56,50,50,48,45,92,76,60,29.65,29.35,5,1,9,0.83
2013-4-2,60,55,49,50,46,43,87,74,63,29.85,29.64,5,1,9,0.00
2013-4-3,62,52,44,52,46,41,91,80,61,29.83,29.51,6,1,14,0.14
2013-4-4,52,49,44,49,46,38,94,88,74,29.76,29.49,3,1,5,0.58
2013-4-5,48,43,38,41,38,36,91,84,73,29.94,29.73,7,2,13,0.58
2013-4-6,50,45,38,43,40,35,92,83,70,30.22,29.92,7,1,8,0.44
2013-4-7,57,50,44,46,42,38,91,75,52,30.21,29.83,3,0,5,0.01
2013-4-8,59,52,47,48,46,42,93,80,53,29.85,29.67,6,1,12,0.26
2013-4-9,60,55,49,48,45,39,90,71,46,29.96,29.64,11,3,22,0.09
2013-4-10,72,61,48,50,47,44,85,62,43,29.96,29.80,12,5,24,0.00
2013-4-11,69,62,53,52,49,44,91,64,43,29.88,29.71,12,5,21,0.17
2013-4-12,62,55,48,50,47,42,91,76,50,30.07,29.86,7,1,12,0.05
2013-4-13,77,64,50,51,46,41,92,56,29,30.10,30.01,9,3,16,0.00
2013-4-14,84,75,60,52,42,36,74,32,20,30.08,29.94,16,8,21,0.00
2013-4-15,66,59,55,55,52,50,88,77,63,30.22,30.09,11,1,11,0.02
2013-4-16,64,58,50,55,52,48,93,80,67,30.23,30.16,3,0,6,0.00
2013-4-17,86,64,53,56,52,48,89,67,31,30.23,30.01,15,3,21,0.00
2013-4-18,58,55,53,54,52,49,94,88,75,30.36,30.23,3,0,7,0.13
2013-4-19,58,54,50,50,45,39,87,73,56,30.46,30.32,5,1,9,0.04
2013-4-20,59,53,47,48,43,39,91,69,52,30.46,30.28,3,1,10,0.02
2013-4-21,60,52,44,47,42,39,84,68,48,30.30,30.16,8,1,9,0.00
2013-4-22,60,53,46,48,44,39,91,71,57,30.24,30.17,3,1,6,0.01
2013-4-23,61,54,50,50,48,47,92,80,62,30.29,30.20,2,0,6,0.01
2013-4-24,77,62,46,50,47,42,91,61,29,30.24,30.13,8,1,15,0.00
2013-4-25,74,66,59,56,46,41,87,48,35,30.16,30.06,8,2,11,0.00
2013-4-26,59,55,50,55,52,47,94,90,87,30.10,30.03,5,1,8,0.11
2013-4-27,51,48,42,48,42,38,91,79,70,30.04,29.89,4,1,13,0.23
2013-4-28,56,48,40,45,41,37,91,78,58,30.02,29.92,4,2,13,0.17
2013-4-29,58,52,48,47,44,41,91,74,58,30.05,29.98,4,1,9,0.24
2013-4-30,58,52,49,49,47,45,94,84,67,29.99,29.85,6,1,9,0.21
2013-5-1,61,53,48,52,48,44,92,82,58,30.08,29.97,8,1,10,0.03
2013-5-2,54,51,49,52,48,46,93,90,85,30.20,30.04,4,1,8,0.33
2013-5-3,56,52,49,51,49,47,93,88,81,30.21,30.15,3,1,4,0.17
2013-5-4,61,56,51,54,51,49,93,84,73,30.22,30.16,2,0,7,0.00
2013-5-5,66,56,48,55,50,46,92,81,61,30.22,30.13,3,0,7,0.00
2013-5-6,76,61,52,56,51,46,87,73,37,30.15,29.99,12,1,16,0.00
2013-5-7,73,64,58,60,56,51,89,75,56,30.06,29.95,2,0,4,0.00
2013-5-8,69,63,59,59,56,52,92,80,57,30.09,29.90,7,1,7,0.09
2013-5-9,60,57,53,57,54,51,95,93,90,30.20,30.00,3,0,7,0.64
2013-5-10,61,54,50,52,49,45,94,84,65,30.23,30.18,2,0,6,0.01
2013-5-11,62,55,50,51,48,44,89,76,57,30.30,30.20,4,1,7,0.00
2013-5-12,60,55,52,49,48,46,84,77,63,30.31,30.26,3,0,4,0.00
2013-5-13,62,54,47,51,48,44,91,79,64,30.30,30.14,2,1,4,0.00
2013-5-14,63,57,52,53,51,49,93,80,67,30.14,29.73,3,1,7,0.20
2013-5-15,56,52,49,51,48,45,92,84,69,29.73,29.67,4,1,6,0.20
2013-5-16,59,52,47,47,44,42,90,75,58,29.69,29.52,5,1,9,0.04
2013-5-17,58,51,46,53,46,42,92,83,68,29.61,29.44,3,1,7,0.54
2013-5-18,53,50,47,49,47,45,94,91,84,29.86,29.56,6,2,10,2.76
2013-5-19,58,53,49,51,48,46,92,84,72,30.11,29.86,5,1,10,0.19
2013-5-20,62,54,47,50,47,44,93,78,59,30.16,30.10,4,1,7,0.00
2013-5-21,55,52,49,51,48,44,94,86,79,30.17,30.09,4,1,4,0.06
2013-5-22,58,54,51,53,52,49,95,91,81,30.19,30.11,4,1,7,0.38
2013-5-23,58,55,54,53,50,47,94,84,73,30.18,30.11,3,1,6,0.02
2013-5-24,59,54,48,49,44,41,86,71,55,30.15,30.10,7,2,9,0.05
2013-5-25,60,54,50,49,46,42,88,74,60,30.20,30.10,6,1,11,0.06
2013-5-26,66,54,44,53,46,40,90,76,52,30.20,29.95,4,1,8,0.01
2013-5-27,61,56,53,54,52,49,90,83,73,29.98,29.78,4,1,9,0.00
2013-5-28,60,54,49,52,48,45,91,82,63,29.94,29.72,7,2,11,0.67
2013-5-29,57,50,47,49,46,43,89,84,72,29.97,29.86,8,2,12,0.61
2013-5-30,56,53,49,53,50,46,93,88,80,30.12,29.95,4,1,10,0.15
2013-5-31,56,55,53,54,52,50,94,89,81,30.26,30.06,4,2,11,0.25
2013-6-1,58,55,54,53,52,51,94,90,85,30.31,30.24,2,1,5,0.02
2013-6-2,57,56,54,55,53,52,94,92,87,30.31,30.25,2,0,6,0.02
2013-6-3,63,57,53,57,53,50,93,86,76,30.29,30.14,6,1,8,0.01
2013-6-4,65,58,51,56,52,48,91,82,69,30.14,29.98,7,1,9,0.00
2013-6-5,70,63,52,59,56,48,89,77,60,29.99,29.86,3,0,3,0.00
2013-6-6,80,64,56,61,57,54,93,79,44,30.01,29.86,12,1,17,0.31
2013-6-7,62,60,58,59,57,56,95,91,86,29.99,29.90,8,1,13,0.39
2013-6-8,58,57,56,56,55,54,95,94,92,29.98,29.85,5,1,7,1.25
2013-6-9,61,58,56,59,56,54,96,95,93,30.00,29.73,3,1,7,1.08
2013-6-10,66,60,57,60,57,55,95,88,76,30.08,30.00,1,0,4,0.00
2013-6-11,76,66,58,62,58,55,93,78,57,30.14,30.00,4,0,6,0.00
2013-6-12,84,72,63,65,61,58,89,72,49,30.17,30.02,8,2,12,0.00
2013-6-13,65,62,60,61,59,57,95,89,81,30.23,30.12,2,0,5,0.17
2013-6-14,70,64,59,60,58,56,93,83,68,30.19,30.00,4,1,8,0.00
2013-6-15,67,62,54,58,56,52,91,81,69,30.14,30.06,2,0,5,0.00
2013-6-16,74,66,60,64,59,55,88,79,68,30.06,29.76,7,1,12,0.00
2013-6-17,65,61,58,60,57,55,93,88,83,29.92,29.70,4,1,9,0.00
2013-6-18,60,59,54,58,56,52,95,93,87,30.00,29.86,2,0,4,0.28
2013-6-19,62,57,54,57,54,52,95,89,77,30.02,29.92,6,1,10,0.43
2013-6-20,60,57,55,55,54,52,93,87,80,30.12,29.99,3,0,7,0.09
2013-6-21,63,59,56,59,56,54,95,89,80,30.26,30.06,3,1,7,0.53
2013-6-22,71,62,54,59,55,52,93,79,54,30.26,30.19,2,0,5,0.02
2013-6-23,65,60,56,59,54,51,94,83,64,30.40,30.26,3,1,8,0.13
2013-6-24,66,60,55,53,51,48,86,74,55,30.40,30.35,2,1,7,0.01
2013-6-25,66,60,55,55,52,50,89,75,60,30.39,30.35,3,1,6,0.00
2013-6-26,69,64,59,58,56,53,85,76,61,30.39,30.31,3,1,7,0.00
2013-6-27,68,63,56,60,57,54,92,80,65,30.35,30.31,4,1,9,0.00
2013-6-28,68,62,56,59,56,54,92,81,71,30.40,30.32,4,1,8,0.00
2013-6-29,68,61,55,59,56,52,92,84,73,30.40,30.35,3,1,7,0.00
2013-6-30,69,63,59,62,59,56,94,86,75,30.36,30.13,2,0,5,0.00
2013-7-1,70,65,62,64,61,59,90,87,81,30.14,30.03,6,1,10,0.00
2013-7-2,70,65,63,64,62,60,94,89,80,30.08,29.99,4,0,6,0.00
2013-7-3,67,65,62,64,62,60,96,89,77,30.25,30.06,2,0,4,0.06
2013-7-4,70,65,62,63,62,60,96,90,77,30.29,30.25,2,0,4,0.03
2013-7-5,74,68,63,66,63,60,93,86,75,30.29,30.22,3,0,6,0.00
2013-7-6,77,69,62,68,64,60,94,85,70,30.25,30.19,5,1,7,0.00
2013-7-7,77,69,61,67,63,58,92,80,62,30.25,30.18,7,1,9,0.00
2013-7-8,80,72,64,70,65,60,91,79,63,30.20,30.08,5,1,10,0.00
2013-7-9,81,74,66,70,67,64,93,80,65,30.10,29.98,2,1,7,0.00
2013-7-10,77,72,68,70,68,65,92,86,77,30.00,29.90,6,2,12,0.00
2013-7-11,81,73,67,71,68,65,93,84,71,29.94,29.90,4,1,8,0.00
2013-7-12,81,74,68,73,69,64,93,83,70,30.00,29.92,6,1,11,0.18
2013-7-13,77,72,66,70,67,63,90,85,75,30.11,29.96,4,1,8,0.01
2013-7-14,77,71,66,69,66,64,93,85,74,30.16,30.06,4,1,7,0.00
2013-7-15,78,71,64,69,65,61,91,82,70,30.17,30.11,3,1,6,0.00
2013-7-16,77,71,67,70,67,64,93,85,68,30.16,30.11,3,0,7,0.06
2013-7-17,77,71,66,69,66,64,93,85,73,30.20,30.15,3,1,7,0.00
2013-7-18,77,71,66,68,65,62,91,83,73,30.19,30.07,3,1,8,0.00
2013-7-19,80,73,65,72,67,62,92,81,70,30.08,29.91,3,1,6,0.00
2013-7-20,85,76,69,73,69,65,91,78,60,29.95,29.84,6,1,9,0.01
2013-7-21,83,75,67,74,69,63,90,83,73,30.04,29.92,8,1,15,0.04
2013-7-22,82,75,69,73,70,67,95,86,73,30.06,29.90,5,1,6,0.00
2013-7-23,74,71,67,71,68,65,94,92,88,30.04,29.92,4,1,7,0.58
2013-7-24,79,72,67,71,68,65,94,85,74,30.04,29.95,2,0,4,0.01
2013-7-25,79,75,71,71,69,68,92,83,70,30.01,29.89,2,0,8,0.01
2013-7-26,80,73,69,72,69,67,95,88,74,29.93,29.77,3,1,7,0.09
2013-7-27,75,70,68,69,66,65,94,88,80,29.86,29.71,3,0,5,0.05
2013-7-28,83,73,66,66,60,50,93,68,34,30.06,29.83,7,2,11,0.00
2013-7-29,77,70,61,63,60,57,90,74,56,30.27,30.03,3,1,4,0.00
2013-7-30,81,73,64,67,63,60,88,73,55,30.27,30.17,3,1,5,0.00
2013-7-31,100,80,64,70,63,53,91,62,22,30.17,29.83,5,1,8,0.00
2013-8-1,94,76,69,72,67,53,91,77,26,29.87,29.77,14,3,18,0.00
2013-8-2,80,74,70,70,68,66,90,82,71,30.07,29.81,2,1,5,0.00
2013-8-3,79,72,67,66,63,60,86,73,57,30.18,30.07,2,1,6,0.01
2013-8-4,78,70,65,66,64,61,94,80,63,30.18,30.03,3,0,6,0.01
2013-8-5,74,68,65,67,64,62,93,87,76,30.08,29.94,3,0,6,0.02
2013-8-6,70,67,65,66,64,63,95,91,85,30.08,29.84,3,0,6,0.25
2013-8-7,67,64,61,64,62,59,95,91,84,30.02,29.86,6,0,10,0.96
2013-8-8,74,66,59,65,60,57,94,83,64,30.29,30.02,4,1,7,0.01
2013-8-9,74,67,58,63,60,56,92,79,66,30.31,30.26,3,1,6,0.00
2013-8-10,75,68,62,66,62,59,90,82,70,30.30,30.20,3,0,5,0.00
2013-8-11,77,70,62,68,64,60,92,83,71,30.21,30.03,2,0,6,0.00
2013-8-12,74,70,66,69,66,64,92,86,80,30.12,30.00,5,1,8,0.00
2013-8-13,76,71,67,66,63,60,86,78,65,30.19,30.11,3,1,7,0.00
2013-8-14,76,68,61,65,60,57,91,77,54,30.19,30.12,3,1,7,0.00
2013-8-15,77,68,60,67,61,56,87,78,69,30.14,30.03,3,1,7,0.00
2013-8-16,74,69,63,68,64,60,91,85,79,30.16,30.04,2,0,4,0.00
2013-8-17,76,70,66,68,65,63,93,84,71,30.16,30.05,3,0,7,0.06
2013-8-18,77,70,63,68,65,61,94,84,72,30.08,30.03,3,1,7,0.00
2013-8-19,73,68,65,66,64,59,95,86,70,30.29,30.08,2,0,4,0.25
2013-8-20,76,68,59,66,61,56,91,81,66,30.29,30.17,4,0,7,0.00
2013-8-21,83,71,60,67,62,57,90,76,54,30.17,29.92,2,1,7,0.00
2013-8-22,76,70,64,68,65,61,92,85,76,30.03,29.89,4,1,8,0.00
2013-8-23,71,69,65,65,63,62,92,83,76,30.06,30.00,1,0,3,0.00
2013-8-24,73,68,64,64,61,58,91,78,63,30.16,30.05,3,1,5,0.01
2013-8-25,73,66,61,63,59,55,94,79,63,30.13,29.94,4,1,7,0.30
2013-8-26,68,64,61,64,61,58,94,88,81,30.00,29.92,4,1,6,0.18
2013-8-27,74,66,59,65,62,58,95,86,74,30.07,29.99,5,1,11,0.00
2013-8-28,74,68,63,66,62,59,93,82,71,30.13,30.05,3,0,5,0.07
2013-8-29,74,67,61,65,62,59,92,83,70,30.19,30.12,3,0,10,0.00
2013-8-30,75,68,61,67,62,59,93,84,65,30.24,30.15,2,0,8,0.00
2013-8-31,74,68,61,65,62,59,92,82,66,30.29,30.24,3,0,6,0.00
2013-9-1,75,69,63,66,63,61,92,83,71,30.30,30.26,2,0,5,0.00
2013-9-2,73,67,62,65,61,56,94,81,59,30.30,30.23,2,0,6,0.00
2013-9-3,81,68,58,67,60,54,88,75,59,30.24,30.09,2,0,6,0.00
2013-9-4,92,78,62,64,56,46,90,55,27,30.11,29.92,6,2,14,0.00
2013-9-5,82,71,64,69,64,52,92,78,37,29.96,29.88,6,1,10,0.00
2013-9-6,73,68,63,65,62,60,93,81,70,30.02,29.89,5,1,7,0.06
2013-9-7,64,62,61,61,59,57,94,90,85,30.07,29.99,1,0,3,0.08
2013-9-8,67,61,57,59,56,54,95,85,68,30.28,30.07,5,1,7,0.46
2013-9-9,72,63,55,62,56,52,92,79,60,30.29,30.22,3,1,4,0.00
2013-9-10,67,64,61,63,60,54,95,87,76,30.24,30.14,2,0,4,0.67
2013-9-11,69,62,57,57,54,52,89,76,56,30.24,30.20,2,0,5,0.00
2013-9-12,67,61,57,59,56,54,90,83,70,30.25,30.20,4,0,6,0.00
2013-9-13,71,64,60,65,61,58,95,88,78,30.27,30.20,3,0,6,0.03
2013-9-14,71,65,59,64,61,57,94,87,76,30.21,30.02,3,1,7,0.13
2013-9-15,69,63,58,61,56,54,92,78,63,30.14,30.08,2,0,5,0.00
2013-9-16,67,60,54,61,56,51,95,87,70,30.07,29.95,3,1,7,0.22
2013-9-17,62,60,58,60,58,56,94,92,88,30.08,30.00,4,1,7,0.39
2013-9-18,69,64,60,63,60,57,94,86,78,30.05,29.99,4,1,5,0.14
2013-9-19,69,64,60,63,60,58,95,88,72,30.15,30.04,3,0,5,0.11
2013-9-20,68,64,62,65,62,59,95,93,88,30.24,30.11,2,0,5,0.06
2013-9-21,70,64,59,63,60,58,96,88,74,30.28,30.22,1,0,4,0.01
2013-9-22,80,66,56,67,60,55,94,81,59,30.26,30.10,2,0,4,0.00
2013-9-23,87,75,62,66,60,56,86,62,43,30.10,29.90,6,1,13,0.00
2013-9-24,78,72,67,66,63,58,90,74,52,29.93,29.86,6,2,11,0.00
2013-9-25,81,72,65,70,66,63,93,82,63,29.91,29.77,1,0,3,0.00
2013-9-26,85,73,65,71,66,62,96,81,56,29.87,29.76,2,0,3,0.00
2013-9-27,85,82,76,66,59,55,59,47,39,29.78,29.66,5,2,10,0.00
2013-9-28,79,74,69,63,58,53,80,57,45,29.66,29.56,10,4,18,0.00
2013-9-29,74,69,65,65,59,53,88,71,52,29.76,29.59,8,1,12,0.01
2013-9-30,78,70,63,63,60,58,84,73,55,29.75,29.63,3,1,6,0.00
2013-10-1,81,74,65,65,62,60,85,67,55,29.77,29.62,10,3,17,0.00
2013-10-2,86,77,72,69,65,62,79,67,52,29.78,29.68,6,1,8,0.00
2013-10-3,86,80,70,67,63,59,86,58,46,29.88,29.61,16,8,24,0.24
2013-10-4,73,67,61,65,62,58,93,86,67,30.12,29.88,7,1,9,0.70
2013-10-5,68,63,59,63,59,56,90,86,79,30.30,30.12,3,1,4,0.00
2013-10-6,70,64,60,62,59,57,94,85,67,30.29,30.25,3,0,4,0.54
2013-10-7,69,61,54,59,55,52,94,82,61,30.25,30.19,3,0,7,0.00
2013-10-8,69,61,57,60,56,53,88,81,68,30.29,30.20,4,0,6,0.00
2013-10-9,69,62,57,58,54,50,87,76,55,30.29,30.16,2,0,4,0.00
2013-10-10,60,58,54,57,52,46,89,81,67,30.16,30.06,3,1,6,0.09
2013-10-11,60,53,48,50,46,44,89,80,59,30.10,30.00,4,1,6,0.02
2013-10-12,67,55,48,51,46,42,85,72,43,30.08,30.00,5,2,9,0.00
2013-10-13,70,58,50,56,50,44,85,76,54,30.09,30.04,4,1,7,0.00
2013-10-14,73,62,55,59,56,52,91,79,56,30.09,30.02,3,0,6,0.00
2013-10-15,71,66,61,63,59,56,92,78,65,30.05,29.94,6,1,10,0.01
2013-10-16,81,69,63,65,62,58,93,82,48,30.19,30.02,4,1,9,0.05
2013-10-17,74,66,59,66,62,58,95,86,72,30.18,29.92,2,0,4,0.00
2013-10-18,85,73,65,62,57,52,90,59,34,29.92,29.75,10,2,18,0.00
2013-10-19,76,71,66,61,56,50,80,61,43,29.89,29.76,8,1,12,0.00
2013-10-20,80,70,65,57,54,52,74,58,39,30.02,29.89,11,2,16,0.00
2013-10-21,75,69,60,56,52,50,83,56,41,30.01,29.72,12,5,22,0.00
2013-10-22,76,72,66,58,53,48,75,52,37,29.71,29.58,13,8,26,0.00
2013-10-23,76,69,63,57,52,50,73,54,40,29.95,29.69,11,4,17,0.00
2013-10-24,76,71,61,57,53,49,69,53,45,29.94,29.67,18,8,34,0.00
2013-10-25,74,70,66,65,60,57,86,71,55,29.86,29.75,10,2,17,0.01
2013-10-26,74,68,63,61,58,52,86,71,54,30.05,29.85,7,1,10,0.01
2013-10-27,74,69,64,53,49,47,65,49,40,30.13,29.91,10,4,21,0.00
2013-10-28,73,65,57,57,50,41,91,64,33,30.11,29.77,18,5,28,0.06
2013-10-29,60,55,52,52,49,46,89,80,67,30.28,30.10,6,1,9,0.25
2013-10-30,63,54,49,53,48,46,93,83,61,30.31,30.24,3,0,5,0.04
2013-10-31,64,53,45,49,45,43,90,77,53,30.31,30.18,2,1,5,0.00
2013-11-1,69,62,50,54,47,44,82,59,47,30.18,29.93,12,5,17,0.00
2013-11-2,73,67,60,59,57,54,92,71,58,30.03,29.90,9,3,17,0.50
2013-11-3,62,57,54,57,53,49,93,85,69,30.16,29.94,2,0,5,0.48
2013-11-4,61,57,54,56,52,49,92,85,75,29.94,29.67,9,3,13,0.85
2013-11-5,66,63,58,61,60,56,95,91,84,30.07,29.78,4,2,13,0.73
2013-11-6,73,66,61,62,60,58,92,85,66,30.11,30.01,3,0,5,0.00
2013-11-7,72,62,56,60,56,50,93,80,57,30.06,29.94,3,0,6,0.00
2013-11-8,66,59,52,58,52,47,92,78,59,30.18,29.85,9,2,15,0.41
2013-11-9,60,54,49,55,47,38,91,77,47,30.20,30.06,9,2,16,0.36
2013-11-10,61,59,57,57,55,53,92,86,79,30.35,30.17,4,2,10,0.21
2013-11-11,59,58,57,56,55,55,94,92,89,30.39,30.32,3,1,8,0.30
2013-11-12,59,57,56,58,56,54,96,94,92,30.37,30.27,3,0,5,1.52
2013-11-13,59,57,55,58,55,51,96,92,86,30.39,30.28,3,1,6,0.22
2013-11-14,60,56,52,51,48,44,88,75,60,30.50,30.36,5,1,10,0.03
2013-11-15,53,46,42,47,43,40,92,88,72,30.37,30.15,5,1,10,1.05
2013-11-16,51,44,40,48,42,37,94,90,83,30.28,30.14,2,0,4,0.00
2013-11-17,51,48,46,48,46,44,93,90,86,30.15,29.95,2,0,5,0.08
2013-11-18,53,50,47,52,48,45,95,93,84,29.95,29.78,4,1,13,0.76
2013-11-19,54,51,47,50,46,37,92,83,61,30.08,29.82,6,1,15,0.25
2013-11-20,50,45,41,44,41,37,91,84,61,30.12,29.90,5,1,8,0.36
2013-11-21,53,50,47,47,44,41,92,80,67,29.90,29.66,7,3,15,0.60
2013-11-22,51,44,40,46,40,37,91,84,70,29.98,29.67,4,1,17,0.20
2013-11-23,48,44,41,42,40,36,92,86,78,30.12,29.97,3,0,4,0.09
2013-11-24,47,44,42,42,39,38,89,84,74,30.33,30.12,2,0,4,0.01
2013-11-25,48,46,44,41,38,35,82,74,62,30.50,30.33,3,1,8,0.00
2013-11-26,48,44,39,38,35,32,80,71,64,30.54,30.45,2,0,5,0.00
2013-11-27,45,40,33,35,31,28,87,73,54,30.49,30.38,3,0,4,0.00
2013-11-28,52,41,34,37,33,29,86,75,48,30.49,30.42,3,1,5,0.00
2013-11-29,46,42,38,41,38,34,88,85,82,30.51,30.40,1,0,3,0.00
2013-11-30,51,49,45,48,43,36,91,81,65,30.40,30.18,4,2,16,0.29
2013-12-1,47,44,39,41,38,35,87,80,70,30.34,30.25,2,0,5,0.00
2013-12-2,48,44,41,41,38,36,88,82,76,30.31,30.22,1,0,3,0.00
2013-12-3,61,47,38,48,40,35,90,77,53,30.33,30.27,3,1,5,0.00
2013-12-4,57,50,43,50,45,39,88,83,72,30.46,30.33,3,0,6,0.00
2013-12-5,52,51,48,48,44,38,86,77,69,30.53,30.42,2,0,5,0.00
2013-12-6,53,47,42,43,39,37,86,74,61,30.51,30.40,2,0,5,0.00
2013-12-7,54,46,41,45,41,37,90,82,70,30.40,30.25,2,0,4,0.00
2013-12-8,56,46,39,47,40,36,90,83,63,30.36,30.27,4,0,6,0.00
2013-12-9,60,49,39,41,38,34,90,67,45,30.39,30.32,6,2,9,0.00
2013-12-10,61,52,45,44,36,26,66,55,29,30.41,30.33,7,2,13,0.00
2013-12-11,65,60,55,36,29,20,47,32,21,30.33,30.26,13,9,26,0.00
2013-12-12,60,54,49,38,37,34,60,53,44,30.35,30.25,7,4,11,0.00
2013-12-13,54,49,46,47,39,33,91,68,51,30.43,30.22,6,2,10,0.25
2013-12-14,60,52,48,51,46,40,93,80,57,30.56,30.40,4,0,11,0.20
2013-12-15,66,58,48,40,37,33,75,46,32,30.45,30.34,8,4,12,0.00
2013-12-16,68,63,58,40,31,20,50,30,19,30.34,30.18,14,6,24,0.00
2013-12-17,60,56,55,41,39,32,58,53,35,30.31,30.19,16,9,25,0.00
2013-12-18,61,57,51,44,42,40,70,58,49,30.24,29.93,16,6,30,0.00
2013-12-19,57,51,47,49,46,43,92,84,60,30.10,29.84,15,3,28,0.58
2013-12-20,55,49,42,46,42,38,88,75,62,30.53,30.10,4,1,12,0.09
2013-12-21,53,46,38,38,33,27,89,64,37,30.51,30.33,10,3,19,0.00
2013-12-22,62,55,51,44,34,26,66,46,35,30.36,30.31,8,4,15,0.00
2013-12-23,60,56,50,44,41,38,64,56,48,30.32,29.78,15,8,24,0.00
2013-12-24,62,59,54,50,44,40,85,59,46,29.80,29.35,23,12,47,0.02
2013-12-25,58,52,45,49,42,36,87,69,47,29.56,29.27,13,4,20,0.12
2013-12-26,51,47,43,45,40,37,89,78,68,29.93,29.56,8,3,15,0.24
2013-12-27,68,62,52,50,47,43,72,59,49,29.89,29.59,15,6,22,0.01
2013-12-28,65,53,48,53,44,37,91,74,53,30.13,29.58,8,2,13,0.24
2013-12-29,49,46,44,45,42,37,92,85,64,30.41,30.13,4,1,7,0.49
2013-12-30,57,51,43,40,37,34,85,60,45,30.38,30.10,11,5,20,0.00
2013-12-31,63,56,52,50,43,40,88,62,47,30.10,29.88,17,7,27,0.00
2014-1-1,62,57,49,50,45,39,91,66,46,30.01,29.67,17,8,31,0.01
2014-1-2,64,60,55,52,49,46,86,70,55,29.86,29.69,11,3,16,0.02